Showing default

KUIPER-00234, 68581

Orbit data source: Space-Track

KUIPER-00234, 68581 is a payload satellite owned by Kuiper Systems (US) in LEO that was launched on Sat, 04 Apr 2026 UTC via an ATLAS V 551 launch vehicle from the Air Force Eastern Test Range (AFETR). Payload-class satellites include a variety of spacecraft equipped with specific instruments for various scientific and technological missions. These include communications satellites like Starlink; space stations such as the ISS; scientific satellites like the Hubble; Earth observation satellites from companies like Planet Labs, Umbra, and HawkEye 360; GPS; miniature CubeSats for education and research; and military/defense satellites.

Loading next visibility...
Identifier
68581, 2026-072J
Orbit
LEO
Country
Flag of USUS
Related business
Manufacturer
Kuiper Systems
Mission
Operational spacecraft
Bus & Motor
KUIPER, Unknown motor
Mass
~490 kg wet, ~490 kg dry
Launch date (UTC)
2026-04-04 (1 month ago)
Launch vehicle
ATLAS V 551
Launch site
Air Force Eastern Test Range (AFETR)
Object type
Payload
Rocket body
Debris
Shape & HBR
Unknown shape, 3.4 m
Radar Cross Section
RCS unknown

Expand to show TLE details & history
Last TLE update: 8 hours ago

TLE from 8 hours ago
0 KUIPER-00234
1 68581U 26072J   26129.89238880 -.00383529  00000-0 -14879-1 0  9993
2 68581  51.8845   2.4731 0003030 325.2780  34.8005 15.27278643  5483
Epoch: 2026-05-09T21:25Z
TLE epoch observation values (Epoch: 2026-05-09T21:25:02.392Z)
Latitude
0.00003°
Longitude
173.50986°
Altitude
483.005 km
Speed
7.626 km/s
True Right ascension
00h 09m 53s
True Declination
0° 00' 00"
Sunlit
Object was in daylight at epoch
Visualization orbit readout
Latitude
Unknown
Longitude
Unknown
Altitude
Unknown
Speed
Unknown
Apparent Right ascension
Unknown
Apparent Declination
Unknown
Sunlit
N/A
Visualization observer readout
Local Sidereal Time
13:15:35
Azimuth
Unknown
Elevation
Unknown
Doppler factor
Unknown
Orbital elements
Apogee altitude
486.494 km
Perigee altitude
482.335 km
Semi-major axis
6,862.552 km
Eccentricity
0.0003
Inclination
51.8845°
RAAN
2.4731°
Arg. of periapsis
325.278°
True anomaly
34.82032°
Mean anomaly
34.8005°
Eccentric anomaly
34.81041°
Mean motion
3.81781 °/min
Orbital period
94.29 mins
BSTAR
-0.014879
Loading maneuver chart data...
Computing Atmospheric mass density...
Loading historical data...
Loading historical data...
Loading historical data...
Loading historical data...
Loading historical data...
Loading historical data...
Loading historical data...

Documentation

Showing up to 5 results
|